| time (UTC) | temp F | wind direction | speed MPH | gust MPH | rain 1hr in | rain 24hr in | rain mn in | humidity % | barometer mb |
| 20260507004846 | 78 | 293 | 3.0 | 8.0 | 0.00 | 0.00 | 0.00 | 20 | 1013.6 |
| 20260507004347 | 78 | 293 | 3.0 | 6.0 | 0.00 | 0.00 | 0.00 | 20 | 1013.6 |
| 20260507003845 | 79 | 280 | 3.0 | 6.0 | 0.00 | 0.00 | 0.00 | 20 | 1013.6 |
| 20260507003346 | 79 | 288 | 3.0 | 6.0 | 0.00 | 0.00 | 0.00 | 20 | 1013.6 |
| 20260507003106 | 79 | 288 | 2.0 | 6.0 | 0.00 | 0.00 | 0.00 | 20 | 1013.5 |
| 20260507002345 | 79 | 319 | 2.0 | 6.0 | 0.00 | 0.00 | 0.00 | 19 | 1013.5 |
| 20260507001843 | 79 | 339 | 2.0 | 6.0 | 0.00 | 0.00 | 0.00 | 19 | 1013.5 |
| 20260507001343 | 79 | 326 | 3.0 | 7.0 | 0.00 | 0.00 | 0.00 | 19 | 1013.5 |
| 20260507000843 | 79 | 294 | 3.0 | 8.0 | 0.00 | 0.00 | 0.00 | 19 | 1013.5 |
| 20260507000344 | 80 | 291 | 3.0 | 8.0 | 0.00 | 0.00 | 0.00 | 20 | 1013.4 |
| 20260506235841 | 80 | 295 | 2.0 | 6.0 | 0.00 | 0.00 | 0.00 | 20 | 1013.5 |
| 20260506235607 | 80 | 337 | 2.0 | 4.0 | 0.00 | 0.00 | 0.00 | 19 | 1013.5 |
| 20260506234840 | 79 | 230 | 3.0 | 7.0 | 0.00 | 0.00 | 0.00 | 20 | 1013.5 |
| 20260506234340 | 79 | 314 | 3.0 | 7.0 | 0.00 | 0.00 | 0.00 | 20 | 1013.5 |
| 20260506233841 | 79 | 14 | 3.0 | 8.0 | 0.00 | 0.00 | 0.00 | 20 | 1013.5 |
| 20260506233340 | 79 | 261 | 3.0 | 8.0 | 0.00 | 0.00 | 0.00 | 20 | 1013.5 |
| 20260506232842 | 79 | 272 | 3.0 | 7.0 | 0.00 | 0.00 | 0.00 | 20 | 1013.5 |
| 20260506232335 | 80 | 326 | 2.0 | 6.0 | 0.00 | 0.00 | 0.00 | 20 | 1013.5 |
| 20260506231829 | 79 | 338 | 2.0 | 7.0 | 0.00 | 0.00 | 0.00 | 21 | 1013.6 |
| 20260506231317 | 80 | 277 | 2.0 | 8.0 | 0.00 | 0.00 | 0.00 | 21 | 1013.6 |
| 20260506230813 | 79 | 217 | 3.0 | 9.0 | 0.00 | 0.00 | 0.00 | 21 | 1013.6 |
| 20260506230307 | 79 | 281 | 3.0 | 9.0 | 0.00 | 0.00 | 0.00 | 21 | 1013.7 |
| 20260506225757 | 79 | 256 | 3.0 | 8.0 | 0.00 | 0.00 | 0.00 | 21 | 1013.8 |
| 20260506225251 | 79 | 233 | 4.0 | 10.0 | 0.00 | 0.00 | 0.00 | 21 | 1013.7 |
| 20260506224745 | 79 | 329 | 3.0 | 10.0 | 0.00 | 0.00 | 0.00 | 21 | 1013.7 |
| 20260506224235 | 79 | 273 | 2.0 | 7.0 | 0.00 | 0.00 | 0.00 | 21 | 1013.7 |
| 20260506223728 | 79 | 312 | 3.0 | 7.0 | 0.00 | 0.00 | 0.00 | 22 | 1013.8 |
| 20260506223223 | 78 | 44 | 3.0 | 7.0 | 0.00 | 0.00 | 0.00 | 22 | 1013.9 |
| 20260506222713 | 79 | 76 | 3.0 | 9.0 | 0.00 | 0.00 | 0.00 | 22 | 1013.9 |
| 20260506222208 | 79 | 246 | 4.0 | 9.0 | 0.00 | 0.00 | 0.00 | 22 | 1013.9 |
| 20260506221701 | 79 | 285 | 3.0 | 9.0 | 0.00 | 0.00 | 0.00 | 22 | 1013.9 |
| 20260506221412 | 79 | 279 | 3.0 | 8.0 | 0.00 | 0.00 | 0.00 | 23 | 1014.0 |
| 20260506220725 | 79 | 291 | 3.0 | 8.0 | 0.00 | 0.00 | 0.00 | 23 | 1014.0 |
| 20260506215629 | 79 | 303 | 2.0 | 6.0 | 0.00 | 0.00 | 0.00 | 24 | 1014.1 |
| 20260506215121 | 79 | 237 | 2.0 | 6.0 | 0.00 | 0.00 | 0.00 | 24 | 1014.2 |
| 20260506214617 | 78 | 243 | 2.0 | 6.0 | 0.00 | 0.00 | 0.00 | 24 | 1014.2 |
| 20260506214102 | 79 | 29 | 2.0 | 4.0 | 0.00 | 0.00 | 0.00 | 24 | 1014.4 |
| 20260506213556 | 78 | 64 | 2.0 | 4.0 | 0.00 | 0.00 | 0.00 | 23 | 1014.5 |
| 20260506213051 | 78 | 29 | 2.0 | 5.0 | 0.00 | 0.00 | 0.00 | 23 | 1014.6 |
| 20260506212541 | 79 | 291 | 2.0 | 6.0 | 0.00 | 0.00 | 0.00 | 22 | 1014.7 |
| 20260506212521 | 79 | 277 | 2.0 | 6.0 | 0.00 | 0.00 | 0.00 | 22 | 1014.7 |
| 20260506211529 | 78 | 223 | 2.0 | 6.0 | 0.00 | 0.00 | 0.00 | 22 | 1014.7 |
| 20260506211019 | 78 | 250 | 2.0 | 6.0 | 0.00 | 0.00 | 0.00 | 23 | 1014.7 |
| 20260506210513 | 77 | 273 | 3.0 | 7.0 | 0.00 | 0.00 | 0.00 | 24 | 1014.8 |
| 20260506210230 | 77 | 280 | 3.0 | 8.0 | 0.00 | 0.00 | 0.00 | 25 | 1014.8 |
| 20260506205457 | 77 | 265 | 3.0 | 8.0 | 0.00 | 0.00 | 0.00 | 25 | 1014.9 |
| 20260506204951 | 76 | 243 | 5.0 | 11.0 | 0.00 | 0.00 | 0.00 | 25 | 1015.0 |
| 20260506204451 | 77 | 333 | 4.0 | 11.0 | 0.00 | 0.00 | 0.00 | 25 | 1015.1 |
| 20260506203947 | 77 | 308 | 3.0 | 7.0 | 0.00 | 0.00 | 0.00 | 25 | 1015.1 |
| 20260506203448 | 77 | 276 | 3.0 | 6.0 | 0.00 | 0.00 | 0.00 | 25 | 1015.1 |
| 20260506202948 | 77 | 200 | 3.0 | 6.0 | 0.00 | 0.00 | 0.00 | 26 | 1015.2 |
| 20260506202446 | 78 | 280 | 3.0 | 8.0 | 0.00 | 0.00 | 0.00 | 25 | 1015.2 |
| 20260506201946 | 77 | 221 | 3.0 | 8.0 | 0.00 | 0.00 | 0.00 | 24 | 1015.3 |
| 20260506201711 | 77 | 212 | 2.0 | 8.0 | 0.00 | 0.00 | 0.00 | 25 | 1015.3 |
| 20260506200945 | 77 | 207 | 2.0 | 8.0 | 0.00 | 0.00 | 0.00 | 25 | 1015.3 |
| 20260506200449 | 77 | 242 | 3.0 | 8.0 | 0.00 | 0.00 | 0.00 | 25 | 1015.3 |
| 20260506195949 | 77 | 334 | 4.0 | 8.0 | 0.00 | 0.00 | 0.00 | 24 | 1015.5 |
| 20260506195444 | 77 | 248 | 4.0 | 8.0 | 0.00 | 0.00 | 0.00 | 25 | 1015.5 |
| 20260506194945 | 77 | 245 | 3.0 | 7.0 | 0.00 | 0.00 | 0.00 | 24 | 1015.5 |
| 20260506194447 | 76 | 249 | 2.0 | 9.0 | 0.00 | 0.00 | 0.00 | 24 | 1015.7 |
| 20260506193945 | 76 | 267 | 2.0 | 9.0 | 0.00 | 0.00 | 0.00 | 23 | 1015.8 |
| 20260506193441 | 76 | 262 | 2.0 | 5.0 | 0.00 | 0.00 | 0.00 | 24 | 1015.8 |
| 20260506192941 | 76 | 19 | 2.0 | 8.0 | 0.00 | 0.00 | 0.00 | 23 | 1015.9 |
| 20260506192934 | 75 | 15 | 3.0 | 8.0 | 0.00 | 0.00 | 0.00 | 22 | 1015.9 |
| 20260506191944 | 75 | 210 | 3.0 | 8.0 | 0.00 | 0.00 | 0.00 | 23 | 1016.1 |
| 20260506191443 | 75 | 265 | 2.0 | 8.0 | 0.00 | 0.00 | 0.00 | 23 | 1016.1 |
| 20260506190942 | 75 | 278 | 1.0 | 5.0 | 0.00 | 0.00 | 0.00 | 24 | 1016.1 |
| 20260506190707 | 74 | 278 | 2.0 | 5.0 | 0.00 | 0.00 | 0.00 | 23 | 1016.2 |
| 20260506185941 | 74 | 310 | 3.0 | 7.0 | 0.00 | 0.00 | 0.00 | 23 | 1016.2 |
| 20260506185442 | 75 | 314 | 3.0 | 7.0 | 0.00 | 0.00 | 0.00 | 25 | 1016.2 |
| 20260506184941 | 75 | 262 | 2.0 | 5.0 | 0.00 | 0.00 | 0.00 | 23 | 1016.2 |
| 20260506184442 | 74 | 85 | 2.0 | 4.0 | 0.00 | 0.00 | 0.00 | 22 | 1016.3 |
| 20260506183942 | 74 | 222 | 2.0 | 5.0 | 0.00 | 0.00 | 0.00 | 21 | 1016.3 |
| 20260506183441 | 74 | 288 | 2.0 | 5.0 | 0.00 | 0.00 | 0.00 | 23 | 1016.4 |
| 20260506182939 | 74 | 278 | 2.0 | 5.0 | 0.00 | 0.00 | 0.00 | 25 | 1016.4 |
| 20260506182438 | 73 | 275 | 2.0 | 8.0 | 0.00 | 0.00 | 0.00 | 25 | 1016.5 |
| 20260506182151 | 73 | 324 | 2.0 | 8.0 | 0.00 | 0.00 | 0.00 | 27 | 1016.5 |
| 20260506181431 | 73 | 273 | 2.0 | 6.0 | 0.00 | 0.00 | 0.00 | 28 | 1016.6 |
| 20260506180931 | 73 | 245 | 3.0 | 6.0 | 0.00 | 0.00 | 0.00 | 28 | 1016.6 |
| 20260506180432 | 72 | 294 | 2.0 | 8.0 | 0.00 | 0.00 | 0.00 | 28 | 1016.7 |
| 20260506180152 | 73 | 331 | 1.0 | 8.0 | 0.00 | 0.00 | 0.00 | 28 | 1016.6 |
| 20260506175431 | 73 | 84 | 1.0 | 4.0 | 0.00 | 0.00 | 0.00 | 28 | 1016.7 |
| 20260506174932 | 72 | 35 | 3.0 | 9.0 | 0.00 | 0.00 | 0.00 | 28 | 1016.7 |
| 20260506174429 | 72 | 313 | 3.0 | 9.0 | 0.00 | 0.00 | 0.00 | 29 | 1016.7 |
| 20260506173927 | 72 | 281 | 1.0 | 7.0 | 0.00 | 0.00 | 0.00 | 30 | 1016.7 |
| 20260506173428 | 73 | 351 | 1.0 | 4.0 | 0.00 | 0.00 | 0.00 | 31 | 1016.7 |
| 20260506172927 | 72 | 150 | 1.0 | 4.0 | 0.00 | 0.00 | 0.00 | 32 | 1016.7 |
| 20260506172427 | 71 | 101 | 1.0 | 6.0 | 0.00 | 0.00 | 0.00 | 35 | 1016.7 |
| 20260506171928 | 71 | 6 | 1.0 | 6.0 | 0.00 | 0.00 | 0.00 | 33 | 1016.7 |
| 20260506171426 | 71 | 59 | 1.0 | 4.0 | 0.00 | 0.00 | 0.00 | 32 | 1016.7 |
| 20260506171149 | 71 | 141 | 1.0 | 4.0 | 0.00 | 0.00 | 0.00 | 35 | 1016.6 |
| 20260506170424 | 70 | 102 | 1.0 | 6.0 | 0.00 | 0.00 | 0.00 | 34 | 1016.6 |
| 20260506170400 | 69 | 219 | 2.0 | 6.0 | 0.00 | 0.00 | 0.00 | 37 | 1016.7 |
| 20260506165409 | 69 | 6 | 2.0 | 6.0 | 0.00 | 0.00 | 0.00 | 36 | 1016.6 |
| 20260506164910 | 69 | 10 | 2.0 | 5.0 | 0.00 | 0.00 | 0.00 | 37 | 1016.6 |
| 20260506164640 | 68 | 19 | 1.0 | 5.0 | 0.00 | 0.00 | 0.00 | 37 | 1016.6 |
| 20260506163908 | 68 | 26 | 2.0 | 5.0 | 0.00 | 0.00 | 0.00 | 38 | 1016.7 |
| 20260506163406 | 68 | 225 | 2.0 | 6.0 | 0.00 | 0.00 | 0.00 | 38 | 1016.7 |
| 20260506163128 | 67 | 226 | 2.0 | 6.0 | 0.00 | 0.00 | 0.00 | 40 | 1016.6 |
| 20260506162633 | 67 | 275 | 2.0 | 6.0 | 0.00 | 0.00 | 0.00 | 40 | 1016.6 |
| 20260506161907 | 67 | 279 | 1.0 | 5.0 | 0.00 | 0.00 | 0.00 | 41 | 1016.5 |
| 20260506161842 | 67 | 327 | 1.0 | 4.0 | 0.00 | 0.00 | 0.00 | 42 | 1016.5 |
| 20260506160906 | 67 | 271 | 1.0 | 4.0 | 0.00 | 0.00 | 0.00 | 41 | 1016.5 |
| 20260506160405 | 66 | 253 | 1.0 | 4.0 | 0.00 | 0.00 | 0.00 | 42 | 1016.5 |
| 20260506155906 | 66 | 261 | 1.0 | 4.0 | 0.00 | 0.00 | 0.00 | 42 | 1016.5 |
| 20260506155638 | 66 | 4 | 1.0 | 4.0 | 0.00 | 0.00 | 0.00 | 43 | 1016.5 |
| 20260506154855 | 66 | 296 | 1.0 | 3.0 | 0.00 | 0.00 | 0.00 | 44 | 1016.5 |
| 20260506154354 | 65 | 276 | 1.0 | 3.0 | 0.00 | 0.00 | 0.00 | 44 | 1016.5 |
| 20260506153855 | 65 | 272 | 0.0 | 2.0 | 0.00 | 0.00 | 0.00 | 44 | 1016.4 |
| 20260506153355 | 65 | 244 | 0.0 | 3.0 | 0.00 | 0.00 | 0.00 | 45 | 1016.4 |
| 20260506152856 | 65 | 294 | 0.0 | 3.0 | 0.00 | 0.00 | 0.00 | 45 | 1016.5 |
| 20260506152358 | 65 | 281 | 1.0 | 2.0 | 0.00 | 0.00 | 0.00 | 45 | 1016.5 |
| 20260506151855 | 64 | 275 | 1.0 | 3.0 | 0.00 | 0.00 | 0.00 | 46 | 1016.5 |
| 20260506151844 | 64 | 160 | 1.0 | 3.0 | 0.00 | 0.00 | 0.00 | 47 | 1016.5 |
| 20260506151114 | 63 | 154 | 1.0 | 4.0 | 0.00 | 0.00 | 0.00 | 49 | 1016.5 |
| 20260506150353 | 62 | 268 | 1.0 | 4.0 | 0.00 | 0.00 | 0.00 | 48 | 1016.5 |
| 20260506145854 | 62 | 179 | 1.0 | 4.0 | 0.00 | 0.00 | 0.00 | 49 | 1016.5 |
| 20260506145353 | 62 | 135 | 1.0 | 4.0 | 0.00 | 0.00 | 0.00 | 51 | 1016.5 |
| 20260506144853 | 62 | 216 | 1.0 | 4.0 | 0.00 | 0.00 | 0.00 | 50 | 1016.5 |
| 20260506144354 | 62 | 208 | 1.0 | 4.0 | 0.00 | 0.00 | 0.00 | 52 | 1016.6 |
| 20260506143854 | 62 | 227 | 1.0 | 3.0 | 0.00 | 0.00 | 0.00 | 52 | 1016.5 |
| 20260506143352 | 62 | 214 | 1.0 | 3.0 | 0.00 | 0.00 | 0.00 | 53 | 1016.6 |
| 20260506142853 | 62 | 223 | 1.0 | 3.0 | 0.00 | 0.00 | 0.00 | 52 | 1016.6 |
| 20260506142351 | 62 | 228 | 0.0 | 3.0 | 0.00 | 0.00 | 0.00 | 53 | 1016.6 |
| 20260506142113 | 62 | 170 | 0.0 | 0.0 | 0.00 | 0.00 | 0.00 | 54 | 1016.6 |
| 20260506141351 | 62 | 143 | 0.0 | 0.0 | 0.00 | 0.00 | 0.00 | 53 | 1016.6 |
| 20260506140851 | 62 | 143 | 0.0 | 0.0 | 0.00 | 0.00 | 0.00 | 53 | 1016.5 |
| 20260506140350 | 62 | 60 | 0.0 | 0.0 | 0.00 | 0.00 | 0.00 | 54 | 1016.5 |
| 20260506135850 | 60 | 52 | 0.0 | 0.0 | 0.00 | 0.00 | 0.00 | 57 | 1016.5 |
| 20260506135352 | 58 | 50 | 0.0 | 0.0 | 0.00 | 0.00 | 0.00 | 60 | 1016.5 |
| 20260506134852 | 58 | 50 | 0.0 | 0.0 | 0.00 | 0.00 | 0.00 | 60 | 1016.4 |
| 20260506134831 | 59 | 51 | 0.0 | 0.0 | 0.00 | 0.00 | 0.00 | 59 | 1016.4 |
| 20260506133850 | 60 | 50 | 0.0 | 0.0 | 0.00 | 0.00 | 0.00 | 58 | 1016.4 |
| 20260506133352 | 60 | 51 | 0.0 | 0.0 | 0.00 | 0.00 | 0.00 | 57 | 1016.4 |
| 20260506132850 | 60 | 50 | 0.0 | 0.0 | 0.00 | 0.00 | 0.00 | 58 | 1016.3 |
| 20260506132351 | 58 | 51 | 0.0 | 0.0 | 0.00 | 0.00 | 0.00 | 64 | 1016.3 |
| 20260506131850 | 56 | 51 | 0.0 | 0.0 | 0.00 | 0.00 | 0.00 | 68 | 1016.3 |
| 20260506131351 | 56 | 50 | 0.0 | 0.0 | 0.00 | 0.00 | 0.00 | 68 | 1016.2 |
| 20260506130850 | 55 | 50 | 0.0 | 0.0 | 0.00 | 0.00 | 0.00 | 68 | 1016.3 |
| 20260506130352 | 55 | 50 | 0.0 | 0.0 | 0.00 | 0.00 | 0.00 | 69 | 1016.2 |
| 20260506130117 | 54 | 51 | 0.0 | 0.0 | 0.00 | 0.00 | 0.00 | 71 | 1016.2 |
| 20260506125351 | 53 | 51 | 0.0 | 0.0 | 0.00 | 0.00 | 0.00 | 72 | 1016.1 |
| 20260506124851 | 52 | 50 | 0.0 | 0.0 | 0.00 | 0.00 | 0.00 | 74 | 1016.1 |
| 20260506124352 | 51 | 50 | 0.0 | 0.0 | 0.00 | 0.00 | 0.00 | 75 | 1016.1 |
| 20260506124116 | 51 | 50 | 0.0 | 0.0 | 0.00 | 0.00 | 0.00 | 75 | 1016.0 |
| 20260506123350 | 51 | 50 | 0.0 | 0.0 | 0.00 | 0.00 | 0.00 | 75 | 1016.0 |
| 20260506122852 | 52 | 50 | 0.0 | 0.0 | 0.00 | 0.00 | 0.00 | 75 | 1016.0 |
| 20260506122350 | 52 | 50 | 0.0 | 0.0 | 0.00 | 0.00 | 0.00 | 74 | 1015.9 |
| 20260506121850 | 52 | 50 | 0.0 | 0.0 | 0.00 | 0.00 | 0.00 | 73 | 1015.8 |
| 20260506121351 | 52 | 50 | 0.0 | 0.0 | 0.00 | 0.00 | 0.00 | 72 | 1015.8 |
| 20260506120846 | 53 | 50 | 0.0 | 0.0 | 0.00 | 0.00 | 0.00 | 72 | 1015.8 |
| 20260506120341 | 53 | 50 | 0.0 | 0.0 | 0.00 | 0.00 | 0.00 | 71 | 1015.7 |
| 20260506115832 | 53 | 50 | 0.0 | 0.0 | 0.00 | 0.00 | 0.00 | 71 | 1015.7 |
| 20260506115330 | 53 | 50 | 0.0 | 0.0 | 0.00 | 0.00 | 0.00 | 70 | 1015.5 |
| 20260506114832 | 53 | 50 | 0.0 | 0.0 | 0.00 | 0.00 | 0.00 | 69 | 1015.5 |
| 20260506114550 | 53 | 139 | 0.0 | 0.0 | 0.00 | 0.00 | 0.00 | 69 | 1015.4 |
| 20260506114045 | 53 | 139 | 0.0 | 0.0 | 0.00 | 0.01 | 0.00 | 67 | 1015.4 |
| 20260506113328 | 53 | 139 | 0.0 | 0.0 | 0.00 | 0.01 | 0.00 | 67 | 1015.3 |
| 20260506113044 | 54 | 138 | 0.0 | 0.0 | 0.00 | 0.01 | 0.00 | 67 | 1015.4 |
| 20260506112326 | 54 | 150 | 0.0 | 0.0 | 0.00 | 0.01 | 0.00 | 66 | 1015.3 |
| 20260506111823 | 54 | 141 | 0.0 | 0.0 | 0.00 | 0.01 | 0.00 | 66 | 1015.3 |
| 20260506111326 | 54 | 141 | 0.0 | 1.0 | 0.00 | 0.01 | 0.00 | 65 | 1015.3 |
| 20260506110823 | 55 | 141 | 0.0 | 2.0 | 0.00 | 0.02 | 0.00 | 65 | 1015.2 |
| 20260506110322 | 55 | 141 | 1.0 | 4.0 | 0.00 | 0.02 | 0.00 | 64 | 1015.2 |
| 20260506105821 | 55 | 148 | 2.0 | 4.0 | 0.00 | 0.03 | 0.00 | 64 | 1015.2 |
| 20260506105317 | 55 | 129 | 3.0 | 6.0 | 0.00 | 0.03 | 0.00 | 64 | 1015.1 |
| 20260506104818 | 55 | 135 | 2.0 | 6.0 | 0.00 | 0.03 | 0.00 | 65 | 1015.2 |
| 20260506104314 | 55 | 121 | 0.0 | 4.0 | 0.00 | 0.03 | 0.00 | 65 | 1015.1 |
| 20260506103814 | 55 | 207 | 0.0 | 0.0 | 0.00 | 0.04 | 0.00 | 65 | 1015.1 |
| 20260506103535 | 55 | 232 | 0.0 | 1.0 | 0.00 | 0.04 | 0.00 | 64 | 1015.1 |
| 20260506103030 | 55 | 219 | 1.0 | 2.0 | 0.00 | 0.04 | 0.00 | 63 | 1015.0 |
| 20260506102310 | 56 | 219 | 1.0 | 3.0 | 0.00 | 0.05 | 0.00 | 63 | 1014.9 |
| 20260506101809 | 56 | 236 | 0.0 | 3.0 | 0.00 | 0.05 | 0.00 | 62 | 1014.9 |
| 20260506101308 | 56 | 243 | 1.0 | 2.0 | 0.00 | 0.06 | 0.00 | 62 | 1014.9 |
| 20260506100808 | 56 | 243 | 1.0 | 3.0 | 0.00 | 0.06 | 0.00 | 61 | 1014.9 |
| 20260506100306 | 56 | 248 | 2.0 | 4.0 | 0.00 | 0.06 | 0.00 | 61 | 1014.9 |
| 20260506100033 | 56 | 229 | 1.0 | 4.0 | 0.00 | 0.06 | 0.00 | 62 | 1014.9 |
| 20260506095306 | 56 | 205 | 1.0 | 4.0 | 0.00 | 0.06 | 0.00 | 63 | 1014.8 |
| 20260506094805 | 56 | 225 | 1.0 | 3.0 | 0.00 | 0.06 | 0.00 | 64 | 1014.7 |
| 20260506094308 | 56 | 212 | 0.0 | 0.0 | 0.00 | 0.06 | 0.00 | 65 | 1014.7 |
| 20260506094027 | 56 | 131 | 0.0 | 0.0 | 0.00 | 0.06 | 0.00 | 65 | 1014.8 |
| 20260506093301 | 57 | 147 | 1.0 | 3.0 | 0.00 | 0.07 | 0.00 | 65 | 1014.8 |
| 20260506092758 | 57 | 131 | 1.0 | 3.0 | 0.00 | 0.08 | 0.00 | 65 | 1014.7 |
| 20260506092258 | 57 | 179 | 1.0 | 3.0 | 0.00 | 0.08 | 0.00 | 66 | 1014.7 |
| 20260506091800 | 57 | 149 | 1.0 | 4.0 | 0.00 | 0.09 | 0.00 | 66 | 1014.6 |
| 20260506091259 | 57 | 146 | 1.0 | 4.0 | 0.00 | 0.09 | 0.00 | 65 | 1014.5 |
| 20260506090758 | 57 | 144 | 1.0 | 3.0 | 0.00 | 0.10 | 0.00 | 65 | 1014.6 |
| 20260506090259 | 57 | 211 | 1.0 | 3.0 | 0.00 | 0.10 | 0.00 | 65 | 1014.6 |
| 20260506085800 | 58 | 191 | 1.0 | 3.0 | 0.00 | 0.11 | 0.00 | 65 | 1014.6 |
| 20260506085258 | 58 | 158 | 1.0 | 4.0 | 0.00 | 0.11 | 0.00 | 65 | 1014.6 |
| 20260506084756 | 58 | 146 | 1.0 | 4.0 | 0.00 | 0.12 | 0.00 | 64 | 1014.7 |
| 20260506084520 | 58 | 104 | 1.0 | 4.0 | 0.00 | 0.12 | 0.00 | 64 | 1014.7 |
| 20260506084018 | 58 | 196 | 0.0 | 2.0 | 0.00 | 0.13 | 0.00 | 64 | 1014.7 |
| 20260506083256 | 58 | 215 | 1.0 | 3.0 | 0.00 | 0.13 | 0.00 | 63 | 1014.6 |
| 20260506082754 | 59 | 162 | 1.0 | 3.0 | 0.00 | 0.13 | 0.00 | 62 | 1014.7 |
| 20260506082245 | 59 | 231 | 0.0 | 2.0 | 0.00 | 0.14 | 0.00 | 62 | 1014.7 |
| 20260506082008 | 59 | 217 | 0.0 | 2.0 | 0.00 | 0.14 | 0.00 | 61 | 1014.7 |
| 20260506081505 | 59 | 219 | 1.0 | 3.0 | 0.00 | 0.15 | 0.00 | 60 | 1014.7 |
| 20260506080738 | 60 | 229 | 1.0 | 3.0 | 0.00 | 0.15 | 0.00 | 60 | 1014.8 |
| 20260506080240 | 60 | 235 | 0.0 | 4.0 | 0.00 | 0.16 | 0.00 | 60 | 1014.8 |
| 20260506073232 | 60 | 224 | 1.0 | 3.0 | 0.00 | 0.20 | 0.00 | 58 | 1014.9 |
| 20260506072732 | 61 | 245 | 1.0 | 3.0 | 0.00 | 0.21 | 0.00 | 57 | 1014.9 |
| 20260506072453 | 61 | 255 | 1.0 | 3.0 | 0.00 | 0.21 | 0.00 | 57 | 1014.9 |
| 20260506071732 | 61 | 271 | 1.0 | 3.0 | 0.00 | 0.22 | 0.00 | 57 | 1014.8 |
| 20260506071228 | 61 | 260 | 1.0 | 4.0 | 0.00 | 0.22 | 0.00 | 57 | 1014.8 |
| 20260506070727 | 61 | 271 | 1.0 | 4.0 | 0.00 | 0.23 | 0.00 | 56 | 1014.8 |
| 20260506070224 | 61 | 253 | 1.0 | 3.0 | 0.00 | 0.23 | 0.00 | 56 | 1014.8 |
| 20260506062148 | 62 | 252 | 2.0 | 5.0 | 0.00 | 0.26 | 0.23 | 51 | 1014.5 |
| 20260506061648 | 62 | 256 | 3.0 | 6.0 | 0.00 | 0.27 | 0.23 | 50 | 1014.5 |
| 20260506061424 | 63 | 265 | 3.0 | 7.0 | 0.00 | 0.27 | 0.23 | 49 | 1014.5 |
| 20260506060646 | 63 | 227 | 3.0 | 7.0 | 0.00 | 0.28 | 0.23 | 50 | 1014.5 |
| 20260506060146 | 63 | 255 | 3.0 | 6.0 | 0.00 | 0.28 | 0.23 | 51 | 1014.5 |
| 20260506051134 | 64 | 267 | 3.0 | 8.0 | 0.00 | 0.30 | 0.23 | 50 | 1014.1 |
| 20260506050628 | 64 | 230 | 3.0 | 7.0 | 0.00 | 0.30 | 0.23 | 49 | 1014.1 |
| 20260506050128 | 64 | 263 | 2.0 | 7.0 | 0.00 | 0.30 | 0.23 | 49 | 1014.0 |
| 20260506045126 | 64 | 252 | 3.0 | 8.0 | 0.00 | 0.31 | 0.23 | 48 | 1013.9 |
| 20260506044628 | 65 | 251 | 4.0 | 8.0 | 0.00 | 0.31 | 0.23 | 48 | 1013.9 |
| 20260506044126 | 65 | 259 | 3.0 | 8.0 | 0.00 | 0.31 | 0.23 | 47 | 1013.8 |
| 20260506043626 | 65 | 281 | 4.0 | 8.0 | 0.00 | 0.31 | 0.23 | 47 | 1013.7 |
| 20260506043125 | 65 | 240 | 4.0 | 8.0 | 0.00 | 0.31 | 0.23 | 47 | 1013.8 |
| 20260506042626 | 65 | 266 | 4.0 | 8.0 | 0.00 | 0.31 | 0.23 | 46 | 1013.6 |
| 20260506042126 | 65 | 257 | 4.0 | 7.0 | 0.00 | 0.31 | 0.23 | 45 | 1013.5 |
| 20260506041625 | 65 | 274 | 4.0 | 9.0 | 0.00 | 0.31 | 0.23 | 44 | 1013.4 |
| 20260506041126 | 66 | 288 | 5.0 | 9.0 | 0.00 | 0.31 | 0.23 | 44 | 1013.3 |
| 20260506040626 | 66 | 231 | 4.0 | 12.0 | 0.00 | 0.31 | 0.23 | 42 | 1013.2 |
| 20260506040344 | 66 | 271 | 3.0 | 12.0 | 0.00 | 0.31 | 0.23 | 39 | 1013.1 |
| 20260506035614 | 66 | 274 | 3.0 | 8.0 | 0.00 | 0.31 | 0.23 | 37 | 1013.1 |
| 20260506035110 | 66 | 262 | 3.0 | 6.0 | 0.00 | 0.31 | 0.23 | 36 | 1013.1 |
| 20260506034838 | 66 | 258 | 3.0 | 8.0 | 0.00 | 0.31 | 0.23 | 36 | 1012.9 |
| 20260506034107 | 67 | 256 | 4.0 | 8.0 | 0.00 | 0.31 | 0.23 | 36 | 1012.8 |
| 20260506033827 | 67 | 262 | 3.0 | 8.0 | 0.00 | 0.31 | 0.23 | 36 | 1012.8 |
| 20260506033106 | 67 | 278 | 2.0 | 6.0 | 0.00 | 0.31 | 0.23 | 35 | 1012.7 |
| 20260506032605 | 67 | 260 | 2.0 | 4.0 | 0.00 | 0.31 | 0.23 | 35 | 1012.6 |
| 20260506032107 | 67 | 256 | 2.0 | 4.0 | 0.00 | 0.31 | 0.23 | 34 | 1012.5 |
| 20260506031606 | 67 | 246 | 3.0 | 8.0 | 0.00 | 0.32 | 0.23 | 34 | 1012.5 |
| 20260506031103 | 67 | 258 | 4.0 | 9.0 | 0.00 | 0.32 | 0.23 | 33 | 1012.5 |
| 20260506030604 | 67 | 271 | 5.0 | 9.0 | 0.00 | 0.32 | 0.23 | 32 | 1012.4 |
| 20260506030107 | 67 | 248 | 4.0 | 9.0 | 0.00 | 0.32 | 0.23 | 32 | 1012.3 |
| 20260506030043 | 68 | 283 | 5.0 | 9.0 | 0.00 | 0.33 | 0.23 | 32 | 1012.3 |
| 20260506025057 | 68 | 274 | 5.0 | 9.0 | 0.00 | 0.34 | 0.23 | 32 | 1012.2 |
| 20260506024557 | 68 | 273 | 6.0 | 13.0 | 0.00 | 0.35 | 0.23 | 32 | 1012.1 |
| 20260506024056 | 68 | 329 | 6.0 | 13.0 | 0.00 | 0.35 | 0.23 | 33 | 1012.1 |
| 20260506023556 | 68 | 282 | 5.0 | 12.0 | 0.00 | 0.36 | 0.23 | 34 | 1011.9 |
| 20260506023057 | 68 | 271 | 5.0 | 13.0 | 0.00 | 0.37 | 0.23 | 34 | 1011.8 |
| 20260506022556 | 68 | 248 | 5.0 | 13.0 | 0.00 | 0.37 | 0.23 | 34 | 1011.8 |
| 20260506022057 | 68 | 259 | 5.0 | 13.0 | 0.00 | 0.38 | 0.23 | 34 | 1011.6 |
| 20260506021557 | 69 | 251 | 5.0 | 13.0 | 0.00 | 0.38 | 0.23 | 34 | 1011.5 |
| 20260506021057 | 69 | 257 | 6.0 | 11.0 | 0.00 | 0.38 | 0.23 | 34 | 1011.4 |
| 20260506020556 | 69 | 257 | 7.0 | 13.0 | 0.00 | 0.38 | 0.23 | 33 | 1011.3 |
| 20260506020319 | 69 | 243 | 7.0 | 14.0 | 0.00 | 0.39 | 0.23 | 33 | 1011.2 |
| 20260506015559 | 70 | 284 | 6.0 | 14.0 | 0.00 | 0.39 | 0.23 | 33 | 1011.2 |
| 20260506015059 | 70 | 243 | 7.0 | 17.0 | 0.00 | 0.40 | 0.23 | 33 | 1011.1 |
| 20260506014558 | 71 | 278 | 8.0 | 17.0 | 0.00 | 0.41 | 0.23 | 32 | 1011.1 |
| 20260506014100 | 71 | 246 | 8.0 | 14.0 | 0.00 | 0.42 | 0.23 | 32 | 1011.0 |
| 20260506013637 | 72 | 271 | 8.0 | 14.0 | 0.00 | 0.44 | 0.23 | 31 | 1011.0 |
| 20260506012549 | 73 | 233 | 7.0 | 14.0 | 0.00 | 0.45 | 0.23 | 28 | 1010.9 |
| 20260506012047 | 73 | 276 | 7.0 | 13.0 | 0.00 | 0.45 | 0.23 | 26 | 1010.8 |
| 20260506011547 | 73 | 278 | 8.0 | 15.0 | 0.00 | 0.46 | 0.23 | 27 | 1010.8 |
| 20260506011047 | 73 | 268 | 8.0 | 16.0 | 0.00 | 0.46 | 0.23 | 26 | 1010.8 |
| 20260506010548 | 74 | 248 | 8.0 | 16.0 | 0.00 | 0.46 | 0.23 | 27 | 1010.7 |
| 20260506010047 | 74 | 234 | 7.0 | 14.0 | 0.00 | 0.47 | 0.23 | 27 | 1010.6 |
| 20260506005549 | 74 | 262 | 7.0 | 16.0 | 0.00 | 0.47 | 0.23 | 26 | 1010.7 |
| 20260506005043 | 74 | 295 | 7.0 | 16.0 | 0.00 | 0.48 | 0.23 | 27 | 1010.6 |